This demonstration page uses our WeatherBlox Daily Observations layout. Learn more.

Left ArrowRight Arrow

41.55636, -103.73856

Hourly Observations for April 26, 2020

Temp ( °F °C ) Dew Point ( °F °C ) Humidity (%) Winds ( mph kmh ) Pressure ( in mb ) Visibility ( mi km ) Precip ( " mm )
6:58 pm 18:58 Clear 56 13.3 32 0 40 40 SE 9 15 30.11 1020 10 16 0.00 0.00
7:58 pm 19:58 Clear 50 10.1 33 0.3 51 51 SE 12 19 30.13 1020 10 16 0.00 0.00
8:58 pm 20:58 Mostly Clear 49 9.3 33 0.4 54 54 S 13 20 30.12 1020 10 16 0.00 0.00
9:58 pm 21:58 Mostly Cloudy 48 9 34 0.9 57 57 SSE 14 22 30.11 1020 10 16 0.00 0.00
10:58 pm 22:58 Partly Cloudy 47 8.2 32 0.1 57 57 SSE 14 22 30.09 1019 10 16 0.00 0.00
11:58 pm 23:58 Cloudy 47 8.3 32 -0.2 55 55 S 13 20 30.08 1019 10 16 0.00 0.00
12:58 am 00:58 Mostly Cloudy 46 7.8 32 -0.2 57 57 SSW 7 11 30.07 1018 10 16 0.00 0.00
1:58 am 01:58 Mostly Clear 47 8.4 30 -0.9 52 52 SSW 16 26 30.03 1017 10 16 0.00 0.00
2:58 am 02:58 Clear 47 8.3 29 -1.9 49 49 S 24 39 29.99 1016 10 16 0.00 0.00
3:58 am 03:58 Clear 45 7.1 29 -1.5 55 55 SW 16 26 29.99 1016 10 16 0.00 0.00
4:58 am 04:58 Clear 41 5.2 30 -0.9 65 65 SW 10 17 29.99 1016 10 16 0.00 0.00
5:58 am 05:58 Sunny 40 4.5 30 -1.1 67 67 WSW 9 15 29.99 1016 10 16 0.00 0.00
6:58 am 06:58 Sunny 44 6.5 31 -0.8 60 60 WSW 7 11 29.99 1016 10 16 0.00 0.00
7:58 am 07:58 Sunny 51 10.6 34 1 52 52 WNW 6 9 29.99 1016 10 16 0.00 0.00
8:58 am 08:58 Sunny 54 12.3 38 3.1 54 54 NNW 6 9 29.98 1015 10 16 0.00 0.00
9:58 am 09:58 Sunny 62 16.7 31 -0.6 31 31 NW 17 28 29.95 1014 10 16 0.00 0.00
10:58 am 10:58 Sunny 65 18.6 30 -0.9 27 27 NNW 10 17 29.94 1014 10 16 0.00 0.00
11:58 am 11:58 Sunny 68 20.1 29 -1.6 23 23 NW 14 22 29.92 1013 10 16 0.00 0.00
12:58 pm 12:58 Mostly Cloudy 69 20.3 31 -0.3 25 25 N 15 24 29.90 1013 10 16 0.00 0.00
1:58 pm 13:58 Mostly Sunny 72 22 32 -0.1 23 23 N 16 26 29.87 1012 10 16 0.00 0.00
2:58 pm 14:58 Mostly Sunny 69 20.3 30 -0.9 24 24 NNW 10 17 29.89 1012 10 16 0.00 0.00
3:58 pm 15:58 Mostly Cloudy 63 17.1 39 3.7 41 41 SW 22 35 29.93 1014 10 16 0.00 0.00
4:58 pm 16:58 Mostly Cloudy with Light Showers 57 14 44 6.5 61 61 WNW 8 13 30.00 1016 10 16 0.00 0.00
5:58 pm 17:58 Partly Cloudy 58 14.3 43 6.3 59 59 SW 8 13 29.98 1015 10 16 0.00 0.00

Powered by AerisWeather